User: anonymous   Login
Location: Bismarck
(46.7731°N, 100.8200°W)
Time: 08:32:44
(UTC-06:00)
Language:

Cosmos 2219 Rocket - Orbit

View from above orbital plane
View from above orbital plane
View from above satellite
View from above satellite

Ground track
Ground track

The orbit data is extracted from the following two-line orbital elements,

1 22220U 92076B   16339.91807207  .00000152  00000-0  10070-3 0  9997
2 22220  70.9999 108.1725 0014130 217.2642 280.7849 14.16408906243264
Epoch (UTC): 04 December 2016 22:02:01
Eccentricity: 0.0014130
inclination: 70.9999°
perigee height: 827 km
apogee height: 848 km
right ascension of ascending node: 108.1725°
argument of perigee: 217.2642°
revolutions per day: 14.16408906
mean anomaly at epoch: 280.7849°
orbit number at epoch: 24326

The dashed part of the orbit path shows where the satellite is in the earth's shadow,  

DLR